Погода в Полтаве

Поиск расширенной информации на нашем сайте:

Полезная информация:

Новости сайта



14.11.2019
Обновлён Долгосрочный прогноз погоды по России и другим странам хСССР на ноябрь-декабрь 2019 года.
Опубликованы прогностические карты: Предварительный прогноз на декабрь 2019 года, Предварительный прогноз на январь 2020 года, Предварительная схема синоптических процессов на декабрь 2019 г..

11.11.2019
Обновлены Долгосрочный прогноз погоды по России и другим странам хСССР на ноябрь-декабрь 2019 года и Предварительный прогноз на зиму 2019/2020 годов

04.11.2019
Опубликован Долгосрочный прогноз погоды по России и другим странам хСССР на ноябрь 2019 года
Сравнение прогнозируемой аномалии приземной температуры воздуха на ноябрь 2019 года по разным моделям
Предварительный прогноз на зиму 2019/2020 года




Погода в Полтаве - сегодня

Время (UTC), дата Ветер
(°,м/с) 
Видим.   Явления Облачность Т
(°С)
Тd
(°С)
f(%) Тe
(°С)
Pmin
(гПа)
dP
(гПа)
Po
(мм)
O2
(г/м3)
Тmin Tmax R s Состояние
почвы
00 18.11.19 060 (СВ) 0500 м  туман  ?/?  
+1.6 +1.6 100 +2  1028.8  -1  756  303           
03 18.11.19 050 (СВ) 0500 м  туман  ?/?  
+1.5 +1.5 100 +2  1028.4  -0.4  756  303           
06 18.11.19 070 (В) 0200 м  туман  ?/?  
+1.2 +1.2 100 +2  1028.7  0.3  756  303  +1.1         
09 18.11.19 090 (В) 0200 м  туман  ?/?  
+1.5 +1.5 100 +2  1028  -0.7  756  303           
12 18.11.19 тихо ()   0200 м  туман  ?/?  
+1.7 +1.7 100 +2  1027.8  -0.2  756  302           
15 18.11.19 080 (В) 0200 м  слаб. морось{туман}  ?/?  
+1.7 +1.7 100 +2  1028.1  0.3  756  302           
18 18.11.19 070 (В) 0200 м  слаб. морось{туман}  10/10 300 м 
[St]
+1.1 +1.1 100 +2  1029.1  757  304    +2.1  0.5     
21 18.11.19 тихо ()   1000 м  слаб. морось{туман}  10/10 300 м 
[St]
+1.7 +1.7 100 +2  1028.9  -0.2  757  303           
00 19.11.19 тихо ()   0500 м  слаб. морось{туман}  10/10 300 м 
[St]
+1.8 +1.8 100 +2  1029.2  0.3  757  303      0.3     
03 19.11.19 050 (СВ) 1000 м  дымка{морось, туман}  10/10 300 м 
[St]
+1.5 +1.5 100 +2  1029.3  0.1  757  303           
06 19.11.19 080 (В) 2000 м  дымка{морось, туман}  10/10 200 м 
[St]
+1.4 +1.4 100 +2  1029.6  0.3  757  303  +1.1    0.4     
09 19.11.19 030 (СВ) 4000 м  дымка  10/10 300 м 
[St]
+1.5 +1.2 98 +2  1030.4  0.8  758  303           
12 19.11.19 020 (С) 4000 м  дымка  10/10 300 м 
[St]
+1.3 +1 98 +2  1030  -0.4  757  304           
15 19.11.19 020 (С) 4000 м  дымка  10/10 300 м 
[St]
+0.8 +0.5 98 +1  1030.3  0.2  758  304           
18 19.11.19 тихо ()   4000 м  дымка  10/10 300 м 
[St]
+0.7 +0.4 98 +1  1030.5  0.2  758  304           
21 19.11.19 тихо ()   1000 м  дымка  10/10 300 м 
[St]
+0.8 +0.5 98 +1  1030.6  0.1  758  304           
00 20.11.19 тихо ()   0500 м  туман  ?/?  
+1 +1 100 +1  1030.7  0.1  758  304           
03 20.11.19 050 (СВ) 0500 м  слаб. морось{туман}  ?/?  
+1.4 +1.4 100 +2  1030.7  0.1  758  304           
06 20.11.19 060 (СВ) 2000 м  слаб. морось{туман}  10/10 300 м 
[St]
+1.4 +1.1 98 +2  1031.3  0.6  758  304  +0.7    0.1     
09 20.11.19 080 (В) 2000 м  слаб. морось  10/10 200 м 
[St]
+2.2 +1.9 98 1031.8  0.5  759  303           
12 20.11.19 080 (В) 10 км  {морось}  10/10 300 м 
[St]
+1.6 +0.2 90 -1  1032.6  0.7             
15 20.11.19 090 (В) 10 км    10/10 300 м 
[St]
+1 -0.4 90 -1  1033.5  0.9  760  305           
18 20.11.19 100 (В) 10 км    10/10 300 м 
[St]
+1.2 -0.8 86 -2  1034.8  1.3  761  305    +2.3  0.0     
21 20.11.19 080 (В) 10 км    10/10 300 м 
[St]
+2 +0.6 90 +1  1035.6  0.8  761  305           
00 21.11.19 100 (В) 10 км    10/10 300 м 
[St]
+1 -1.9 81 -2  1037.3  1.6  763  306           
Время (UTC), дата Ветер
(°,м/с) 
Видим.   Явления Облачность Т
(°С)
Тd
(°С)
f(%) Тe
(°С)
Pmin
(гПа)
dP
(гПа)
Po
(мм)
O2
(г/м3)
Тmin Tmax R s Состояние
почвы

Для получения пояснительной информации подведите курсор к названию столбца.

ПОГОДА в Полтаве - архив

Всё, что Вы хотите узнать о погоде в Полтаве - удобно и подробно!

Выберите нужную дату (начиная с 1 января 2019* года) и нажмите кнопку "Найти".
Будут отображены архивные сводки погоды по пункту Полтава, начиная с указанной даты.


Отображать данные в формате CSV (для использования в таблицах Excel)


Внимание! Наш архив погоды предназначен исключительно для личного некоммерческого использования в познавательных целях. Если Вам необходимы официальные справки о состоянии погоды (для производственных, юридических, коммерческих и т.п. целей), обращайтесь в органы Росгидромета.

*Примечание: данная дата относится к архиву по метеостанциям СССР (Россия, СНГ, Балтия).
Архив по метеостанциям Зарубежной Европы и Азии (кроме Китая) хранится 10 дней, по другим регионам земного шара (Китай, Африка, Америка, Австралия, Океания) - 1 день.

Полтава - район местоположения метеостанции


Название, широта, долгота, высота метеостанции:
Полтава 49.6°ш. 34.6°д. 160 м над ур. моря [Украина]

Дополнительная информация

В oтличие oт бoльшинства пoгoдных сайтoв мы публикуем пoдрoбную метеoинфoрмацию в детальнoм прoфессиoнальнoм фoрмате.

Характеристики температуры и влажнoсти вoздуха измеряются на высoте 2 м в тени вдали oт зданий и деревьев.
Скoрoсть ветра измеряется на высoте 10 м (на урoвне рoста челoвека скoрoсть ветра ниже в 1.5-2 раза). Если метеoстанция нахoдится в гoрoде или в лесу, тo скoрoсть ветра занижена на 2-4 м/с пo сравнению с oткрытым местoм. Скoрoсть ветра над акватoриями крупных рек и oзёр, а также на вершинах хoлмoв на 2-5 м/с выше, чем в oбычных услoвиях.
Атмoсфернoе давление в разных тoчках местнoсти мoжет значительнo oтличаться oт давления на метеoстанции, в зависимoсти oт услoвий рельефа (при пoдъёме на 10 м давление пoнижается примернo на 1 мм рт.ст.).